Weather Roundup
Issued by NWS

Home | Current Version | Previous Version | Graphics & Text | Print | Product List | Glossary Off
Versions: 1 2 3 4 5 6 7 8 9 10 11 12 13 14 15 16 17 18 19 20 21 22 23 24 25 26 27 28 29 30 31 32 33 34 35 36 37 38 39 40 41 42 43 44 45 46 47 48 49 50

000
NZUS93 KARX 010810
HRRWXR

CURRENT HOURLY OBSERVATIONS ACROSS
MUCH OF THE UPPER MISSISSIPPI VALLEY
NATIONAL WEATHER SERVICE LA CROSSE WI
300 AM CDT WED OCT 01 2014


...SOUTHEAST MINNESOTA...


CITY           SKY/WX    TMP DP  RH WIND       PRES   REMARKS
ROCHESTER      CLOUDY    48  44  86 SE16      29.90F
ROCHESTER/MAYO CLOUDY    47  43  84 SE14G20   29.90F
WINONA         MOCLDY    48  45  87 SE9       29.94F
AUSTIN         CLOUDY    50  45  81 SE9       29.88F
ALBERT LEA     CLOUDY    54  46  76 SE16G24   29.85F
DODGE CENTER   MOCLDY    48  45  87 SE16      29.88S
PRESTON        CLOUDY    47  43  86 SE12      29.92S
OWATONNA       MOCLDY    52  45  76 SE12G21   29.85F
FARIBAULT      MOCLDY    52  46  82 SE10      29.86F
$$

...ELSEWHERE IN MINNESOTA...


CITY           SKY/WX    TMP DP  RH WIND       PRES   REMARKS
MINNEAPOLIS    MOCLDY    51  44  77 SE14      29.86F
INTNL FALLS    CLOUDY    47  42  83 SE10      29.79F
DULUTH         CLOUDY    49  45  86 SE14      29.88F
RED WING       CLOUDY    52  45  76 SE18G24   29.88F
REDWOOD FALLS  CLOUDY    59  57  93 SE12      29.77S
MANKATO        MOCLDY    54  45  71 SE16      29.81F
WORTHINGTON    CLOUDY    61  57  88 S16       29.78F
FAIRMONT       MOCLDY    57  52  82 SE13      29.80S
$$

...SOUTHWEST WISCONSIN...


CITY           SKY/WX    TMP DP  RH WIND       PRES   REMARKS
LA CROSSE      CLOUDY    51  44  77 SE10      29.97S
PRAIRIE DU CHI MOCLDY    48  44  84 E9G16     29.95F
BOSCOBEL       CLOUDY    50  45  83 VRB6      29.98F
LONE ROCK      CLOUDY    52  45  77 SE5       29.99S
PLATTEVILLE    CLOUDY    49  46  92 SE12G18   29.97F
FORT MC COY    CLOUDY    47  42  84 SE8       29.97F
CAMP DOUGLAS   CLOUDY    46  46 100 VRB5      29.99F
VIROQUA        CLOUDY    46  46 100 SE10G17   29.96S
WIS DELLS      CLOUDY    47  45  90 E6        29.99F
$$

...ELSEWHERE IN WISCONSIN...


CITY           SKY/WX    TMP DP  RH WIND       PRES   REMARKS
MILWAUKEE      CLOUDY    55  49  80 E6        30.00F
MADISON        CLOUDY    49  45  86 E6        29.99F
GREEN BAY      CLOUDY    48  47  96 CALM      30.03S FOG
EAU CLAIRE     MOCLDY    47  42  83 SE10      29.95F
BLACK RVR FLS  CLOUDY    46  46  97 SE3       29.98S
MEDFORD        CLOUDY    43  43  97 S9        30.00R FOG
WAUSAU         CLOUDY    44  42  93 SE12      30.00S
WIS RAPIDS     CLOUDY    47  43  86 SE10      30.01F
MARSHFIELD     CLOUDY    46  43  89 SE14      30.00S
RICE LAKE      CLOUDY    46  42  86 SE10      29.96S
$$

...NORTHEAST IOWA...


CITY           SKY/WX    TMP DP  RH WIND       PRES   REMARKS
DECORAH        MOCLDY    46  45  93 VRB7G13   29.93F
MASON CITY     CLOUDY    52  49  89 SE14      29.87F
CHARLES CITY   CLOUDY    52  46  82 SE10G20   29.89F
OELWEIN        CLOUDY    50  46  87 SE13G20   29.91F
$$

...ELSEWHERE IN IOWA...


CITY           SKY/WX    TMP DP  RH WIND       PRES   REMARKS
DES MOINES     RAIN      63  58  83 SE3       29.83R
IOWA CITY      CLOUDY    53  49  86 SE10      29.92S
FORT DODGE     CLOUDY    55  54  94 SE8       29.84S
$$

...NORTHERN ILLINOIS...


CITY           SKY/WX    TMP DP  RH WIND       PRES   REMARKS
CHICAGO-OHARE  CLOUDY    54  46  74 SE13      30.00S
CHICAGO-MIDWAY MOCLDY    56  46  69 SE6       30.00F
MOLINE         NOT AVBL
ROCKFORD       MOCLDY    51  47  86 E5        30.01F
PEORIA         CLEAR     54  46  74 E10       29.95F
$$

NOTE: "FAIR" INDICATES FEW OR NO CLOUDS BELOW 12,000 FEET WITH NO
SIGNIFICANT WEATHER AND/OR OBSTRUCTIONS TO VISIBILITY. WIND
SPEEDS ARE IN MILES-PER-HOUR.



USA.gov is the U.S. government's official web portal to all federal, state and local government web resources and services.